Location: Fort Wayne
(41.1310°N, 85.1290°W)
Time: 01:36:14
(UTC-04:00)

Courier 1B Rocket - All Passes

Search period start: 29 April 2017 00:00
Search period end: 09 May 2017 00:00
Orbit: 920 x 1202 km, 28.2° (Epoch: 27 April)

Date Brightness Start Highest point End Pass type
(mag) Time Alt. Az. Time Alt. Az. Time Alt. Az.
29 Apr - 13:03:42 10° SSW 13:07:08 15° SSE 13:10:37 10° SE daylight
29 Apr - 14:54:33 10° SW 14:59:34 25° S 15:04:45 10° ESE daylight
29 Apr - 16:47:06 10° WSW 16:52:09 24° S 16:57:28 10° SE daylight
29 Apr - 18:41:23 10° SW 18:44:43 14° SSW 18:48:09 10° S daylight
30 Apr - 12:04:48 10° S 12:06:31 11° SSE 12:08:14 10° SE daylight
30 Apr - 13:54:10 10° SW 13:58:51 22° S 14:03:39 10° ESE daylight
30 Apr - 15:46:18 10° WSW 15:51:24 25° S 15:56:42 10° SE daylight
30 Apr - 17:39:50 10° WSW 17:43:58 17° SSW 17:48:16 10° SSE daylight
01 May - 12:53:59 10° SSW 12:58:10 19° SSE 13:02:26 10° ESE daylight
01 May - 14:45:38 10° SW 14:50:40 25° S 14:55:50 10° SE daylight
01 May - 16:38:40 10° WSW 16:43:13 20° SSW 16:47:58 10° SSE daylight
02 May - 11:54:04 10° SSW 11:57:32 15° SSE 12:00:58 10° SE daylight
02 May - 13:45:04 10° SW 13:49:57 24° S 13:54:55 10° ESE daylight
02 May - 15:37:42 10° WSW 15:42:30 23° S 15:47:26 10° SE daylight
02 May - 17:32:16 10° SW 17:34:58 13° SSW 17:37:44 10° S daylight
03 May - 10:54:54 10° S 10:56:53 11° SSE 10:58:51 10° SE daylight
03 May - 12:44:36 10° SW 12:49:15 22° S 12:53:55 10° ESE daylight
03 May - 14:36:52 10° WSW 14:41:46 24° S 14:46:47 10° SE daylight
03 May - 16:30:32 10° SW 16:34:16 16° SSW 16:38:06 10° SSE daylight
04 May - 11:44:18 10° SSW 11:48:34 19° SSE 11:52:49 10° ESE daylight
04 May - 13:36:07 10° SW 13:41:04 25° S 13:46:03 10° SE daylight
04 May - 15:29:17 10° WSW 15:33:34 19° SSW 15:37:58 10° SSE daylight
05 May - 10:44:15 10° SSW 10:47:54 16° SSE 10:51:31 10° SE daylight
05 May - 12:35:27 10° SW 12:40:22 24° S 12:45:15 10° ESE daylight
05 May - 14:28:14 10° WSW 14:32:53 22° S 14:37:35 10° SE daylight
05 May - 16:23:13 10° SW 16:25:17 12° SSW 16:27:22 10° S daylight
06 May - 09:44:44 10° S 09:47:14 12° SSE 09:49:42 10° SE daylight
06 May - 11:34:53 10° SW 11:39:39 22° S 11:44:21 10° ESE daylight
06 May - 13:27:19 10° WSW 13:32:11 24° S 13:37:03 10° SE daylight
06 May - 15:21:12 10° SW 15:24:37 15° SSW 15:28:05 10° SSE daylight
07 May - 10:34:26 10° SSW 10:38:57 20° SSE 10:43:22 10° ESE daylight
07 May - 12:26:28 10° SW 12:31:29 25° S 12:36:25 10° SE daylight
07 May - 14:19:48 10° WSW 14:23:57 19° SSW 14:28:08 10° SSE daylight
08 May - 09:34:13 10° SSW 09:38:15 17° SSE 09:42:10 10° SE daylight
08 May - 11:25:41 10° SW 11:30:46 25° S 11:35:43 10° SE daylight
08 May - 13:18:39 10° WSW 13:23:17 22° S 13:27:53 10° SE daylight
08 May - 15:14:08 10° SW 15:15:38 11° SSW 15:17:09 10° S daylight
